Home > Time Zones > World Clock > Weather > Palau > Koror > Past weeks

Flag for Palau Weather past 2 weeks in Koror, Palau

Now
79 °F

Mostly cloudy.


Feels Like: 82 °F
Forecast: 78 / 85 °F
Wind: 10 mph from Southwest

Location: Koror / Palau Island

Current Time: Jun 30, 2015 at 5:47:37 PM

Latest Report: Jun 30, 2015 at 4:54 PM


Visibility: 14 mi

Pressure: 29.79 "Hg

Humidity: 89%

Dew point: 75 °F

Location of KororLocation

Historic Weather in Koror — Graph

°F

Koror temperature yesterday

Maximum temperature yesterday: 82 °F (at 9:50 AM)
Minimum temperature yesterday: 75 °F (at 2:50 AM)
Average temperature yesterday: 78 °F

Past Weeks' High & Low Weather Summary

 TemperatureHumidityPressure
High88 °F (Jun 18, 11:50 AM)100% (Jun 15, 10:55 PM)29.93 "Hg (Jun 15, 10:55 PM)
Low75 °F (Jun 19, 8:50 AM)74% (Jun 26, 6:50 PM)29.71 "Hg (Jun 17, 2:50 PM)
Average80 °F90%29.82 "Hg
* Reported Jun 15 3:50 PM — Jun 30 3:50 PM, Koror, Weather by CustomWeather, © 2015

Note: Actual official high and low records may vary slightly from our data, if they occured in-between our weather recording intervals... More about our weather records

Advertising

Koror weather history for previous 24 hours

 ConditionsComfort  
Time TempWeatherWind HumidityBarometerVisibility
3:50 PM
Tue, Jun 30
79 °FMostly cloudy.7 mph89%29.80 "Hg14 mi
2:50 PM77 °FMostly cloudy.6 mph94%29.81 "Hg14 mi
1:55 PM77 °FMostly cloudy.7 mph94%29.84 "Hg12 mi
12:50 PM75 °FMostly cloudy.8 mph94%29.87 "Hg5 mi
11:50 AM75 °FLots of rain. Low clouds.17 mph94%29.91 "Hg1 mi
10:50 AM81 °FRain showers. Mostly cloudy.17 mph94%29.88 "Hg4 mi
9:50 AM79 °FSprinkles. Mostly cloudy.8 mph94%29.88 "Hg9 mi
8:55 AM79 °FMostly cloudy.12 mph94%29.89 "Hg13 mi
7:50 AM79 °FMostly cloudy.7 mph94%29.88 "Hg13 mi
6:54 AM79 °FMostly cloudy.6 mph89%29.87 "Hg10 mi
5:52 AM79 °FMostly cloudy.8 mph89%29.85 "Hg13 mi
4:55 AM79 °FSprinkles. Mostly cloudy.9 mph94%29.84 "Hg10 mi
3:50 AM79 °FMostly cloudy.8 mph94%29.84 "Hg13 mi
2:50 AM77 °FSprinkles. Mostly cloudy.8 mph94%29.84 "Hg11 mi
1:50 AM79 °FRain showers. Mostly cloudy.10 mph89%29.86 "Hg8 mi
12:50 AM79 °FMostly cloudy.7 mph89%29.87 "Hg13 mi
11:54 PM
Mon, Jun 29
79 °FMostly cloudy.5 mph89%29.87 "Hg13 mi
10:50 PM79 °FMostly cloudy.8 mph89%29.87 "Hg13 mi
9:50 PM79 °FMostly cloudy.13 mph89%29.88 "Hg13 mi
8:55 PM77 °FMostly cloudy.16 mph94%29.87 "Hg13 mi
7:50 PM77 °FSprinkles. Mostly cloudy.13 mph89%29.84 "Hg11 mi
6:55 PM77 °FSprinkles. Mostly cloudy.13 mph94%29.84 "Hg11 mi
5:50 PM77 °FSprinkles. Mostly cloudy.8 mph94%29.82 "Hg12 mi
Weather by CustomWeather, © 2015

See weather overviewHow to use our weather pages